Flag for Germany Weather past 2 weeks in Görlitz, Saxony, Germany

Now
29 °F

Fog.


Feels Like: 29 °F
Forecast: 31 / 41 °F
Wind: 1 mph from Southeast

Location: Goerlitz

Current Time: Feb 27, 2015 at 7:01:39 AM

Latest Report: Feb 27, 2015 at 6:00 AM


Visibility: 4 mi

Pressure: 29.97 "Hg

Humidity: 97%

Dew point: 28 °F

Location of GörlitzLocation

Historic Weather in Görlitz — Graph

°F

Görlitz temperature yesterday

Maximum temperature yesterday: 46 °F (at 3:00 PM)
Minimum temperature yesterday: 26 °F (at 7:00 AM)
Average temperature yesterday: 37 °F

Past Weeks' High & Low Weather Summary

 TemperatureHumidityPressure
High47 °F (Feb 15, 3:00 PM)100% (Feb 18, 6:00 AM)30.76 "Hg (Feb 18, 6:00 AM)
Low23 °F (Feb 17, 6:00 AM)51% (Feb 24, 2:00 PM)29.47 "Hg (Feb 21, 4:00 PM)
Average36 °F81%30.09 "Hg
* Reported Feb 12 6:00 AM — Feb 27 6:00 AM, Görlitz, Weather by CustomWeather, © 2015

Note: Actual official high and low records may vary slightly from our data, if they occured in-between our weather recording intervals... More about our weather records

Advertising

Görlitz weather history for previous 24 hours

 ConditionsComfort  
Time TempWeatherWind HumidityBarometerVisibility
6:00 AM
Fri, Feb 27
29 °FFog.1 mph97%29.97 "Hg4 mi
5:00 AM28 °FClear.3 mph94%29.97 "Hg7 mi
4:00 AM28 °FClear.2 mph99%29.98 "Hg8 mi
3:00 AM30 °FClear.1 mph96%30.00 "Hg9 mi
2:00 AM29 °FPassing clouds.2 mph97%30.02 "Hg7 mi
1:00 AM31 °FPassing clouds.1 mph92%30.04 "Hg8 mi
12:00 AM31 °FPassing clouds.2 mph94%30.07 "Hg8 mi
11:00 PM
Thu, Feb 26
34 °FClear.2 mph85%30.07 "Hg9 mi
10:00 PM35 °FClear.1 mph86%30.08 "Hg8 mi
9:00 PM36 °FClear.2 mph81%30.09 "Hg7 mi
8:00 PM37 °FClear.2 mph79%30.11 "Hg9 mi
7:00 PM40 °FPassing clouds.3 mph71%30.11 "Hg11 mi
6:00 PM41 °FPassing clouds.2 mph65%30.12 "Hg11 mi
5:00 PM44 °FPassing clouds.3 mph57%30.12 "Hg11 mi
4:00 PM44 °FPassing clouds.5 mph60%30.13 "Hg11 mi
3:00 PM46 °FPassing clouds.3 mph55%30.14 "Hg11 mi
2:00 PM46 °FPassing clouds.3 mph58%30.16 "Hg1 mi
1:00 PM44 °FPartly sunny.2 mph65%30.19 "Hg11 mi
12:00 PM43 °FPassing clouds.2 mph68%30.22 "Hg10 mi
11:00 AM41 °FPassing clouds.1 mph74%30.23 "Hg8 mi
10:00 AM38 °FPassing clouds.1 mph86%30.24 "Hg6 mi
9:00 AM29 °FPassing clouds.1 mph98%30.26 "Hg5 mi
7:00 AM26 °FFog.1 mph100%30.25 "Hg3 mi
Weather by CustomWeather, © 2015

See weather overviewHow to use our weather pages